Regional Weather Roundup
Issued by NWS Pendleton, OR

Home | Current Version | Previous Version | Text Only | Print | Product List | Glossary On
Versions: 1 2 3 4 5 6 7 8 9 10 11 12 13 14 15 16 17 18 19 20 21 22 23 24 25 26 27 28 29 30 31 32 33 34 35 36 37 38 39 40 41 42 43 44 45 46 47 48 49 50
000
ASUS46 KPDT 211225
RWRPDT
PENDLETON REGIONAL WEATHER ROUNDUP
NATIONAL WEATHER SERVICE PENDLETON OREGON
500 AM PDT TUE OCT 21 2014

NOTE: FAIR INDICATES FEW OR NO CLOUDS BELOW 12,000 FEET WITH NO
SIGNIFICANT WEATHER AND/OR OBSTRUCTIONS TO VISIBILITY.

# INDICATES UNOFFICIAL STATION AND DATA

WAZ520-211310-
EAST SLOPES OF WASHINGTON CASCADES

CITY            SKY/WX      TMP DP  RH  WIND    PRES   REMARKS
#BUMPING DAM    N/A         42  N/A N/A CALM    N/A
#CLE ELUM HS    N/A         45  44  96  CALM    29.81R
#CLE ELUM 2NW   N/A         44  44  100 SW2     N/A
#CLE ELUM LAKE  N/A         N/A N/A N/A SW7     29.78R
#CLIFFDEL 2NW   N/A         40  40  100 CALM    N/A
#GLENWOOD       N/A         47  46  96  CALM    29.87R
#MANASTASH CYN  N/A         38  34  85  CALM    29.84R
#NELSON         N/A         42  41  96  CALM    29.85R
#NELSON 3SW     N/A         40  39  96  CALM    30.01R
#NILE           N/A         41  40  96  CALM    29.12R
#RONALD 2NW     N/A         43  41  93  N1      29.72R
#SNOWDEN        N/A         52  49  89  CALM    N/A
#TEANAWAY 4NE   N/A         46  46  100 SW1     N/A
#TROUT LAKE HS  N/A         48  48  100 CALM    N/A
#TROUT LAKE 1NE N/A         46  45  96  CALM    29.87R
$$

WAZ521-211310-
SIMCOE HIGHLANDS

CITY            SKY/WX      TMP DP  RH  WIND    PRES   REMARKS
#BICKLETON HS   N/A         43  35  73  S1      29.97R
#CENTERVILLE 4W N/A         46  43  89  W6      29.64R
#CENTERVILLE 1SWN/A         40  38  92  CALM    29.86R
#GOLDENDALE     N/A         44  44  100 SW5     N/A
#GOLDENDALE 1NE N/A         43  43  100 CALM    N/A
#GOLDENDALE 1S  N/A         43  42  96  CALM    29.87R
#GOLDENDALE 5WNWN/A         42  40  93  CALM    29.88R
#GOODNOE HILLS  N/A         48  48  100 NW2     29.85R
#LYLE 6NE       N/A         47  46  96  CALM    29.85R
$$

WAZ026-211310-
KITTITAS VALLEY

CITY            SKY/WX      TMP DP  RH  WIND    PRES   REMARKS
ELLENSBURG AP   FOG         42  40  93  E6      29.84R VSB 1/4
6HR MIN TEMP:   40; 6HR MAX TEMP:   49;

#ELLENSBURG CWU N/A         41  40  96  N2      29.79R
#ELLENSBURG 3NE N/A         40  39  96  CALM    29.85R
#ELLENSBURG     N/A         42  42  100 E2      N/A
#KITTITAS 3S    N/A         39  38  96  CALM    29.83R
#THORP 6N       N/A         44  43  96  N5      29.83R
$$

WAZ027-211310-
YAKIMA VALLEY

CITY            SKY/WX      TMP DP  RH  WIND    PRES   REMARKS
SUNNYSIDE AP    PTCLDY      43  41  93  NW5     29.87R
YAKIMA AIRPORT  PTCLDY      38  37  96  CALM    29.87R FOG
YAKIMA-VAGABOND PTCLDY      43  42  96  W2      29.87R
#COWICHE 1N     N/A         44  40  86  CALM    30.01R
#DONALD 2NE     N/A         48  43  83  N2      30.19R
#GRANDVIEW      N/A         48  43  83  CALM    29.88S
#MABTON         N/A         52  47  83  S5      29.86R
#MOXEE 2E       N/A         47  47  100 NE3     29.86R
#NACHES 2SW     N/A         44  43  96  CALM    29.84R
#OUTLOOK DOT    N/A         N/A N/A N/A E2      N/A
#SELAH 8E       N/A         40  39  96  E1      N/A
#TERRACE HTS    N/A         42  40  93  CALM    29.82R
#TOPPENISH      N/A         47  44  89  E2      29.78R
#WAPATO 4NE     N/A         48  43  83  N2      30.19R
#WEST VALLEY    N/A         41  40  96  CALM    29.84R
#W YAKIMA       N/A         44  42  93  NW1     29.86
#WHITE SWAN 5E  N/A         51  44  77  W6      29.85R
#WILEY CITY 3W  N/A         41  28  59  CALM    29.96S
$$

WAZ028-211310-
LOWER COLUMBIA BASIN...WASHINGTON

CITY            SKY/WX      TMP DP  RH  WIND    PRES   REMARKS
HANFORD         MOCLDY      50  45  83  W9      29.83R
6HR MIN TEMP:   47; 6HR MAX TEMP:   55;

PASCO           CLOUDY      54  49  83  SW13    29.87R
6HR MIN TEMP:   52; 6HR MAX TEMP:   57;

RICHLAND AWOS   PTCLDY      54  48  80  N5      29.86R
#BASIN CITY 5SW N/A         52  49  89  CALM    29.85R
#BENTON CITY    N/A         51  48  89  W6      29.77R
#CONNELL 5N     N/A         48  46  93  CALM    29.84R
#CONNELL 5NW    N/A         48  46  93  S5      29.80S
#ELTOPIA        N/A         49  47  93  CALM    29.82R
#ELTOPIA 6NW    N/A         50  47  89  CALM    28.82R
#KENNEWICK 3S   N/A         51  48  89  S7      29.85R
#PASCO-BROADMOORN/A         53  50  89  CALM    29.76R
#PATERSON       N/A         51  48  89  NW6     29.86R
#PROSSER        N/A         52  45  77  CALM    29.85S
#SAGEMOOR 2W    N/A         50  47  89  S2      29.70S
#TOUCHET 2S     N/A         54  47  77  S7      29.85S
#WEST PASCO     N/A         53  48  83  CALM    29.86R
$$

WAZ029-211310-
FOOTHILLS OF THE BLUES...WASHINGTON

CITY            SKY/WX      TMP DP  RH  WIND    PRES   REMARKS
WALLA WALLA AP  CLOUDY      54  47  77  S8      29.88R
6HR MIN TEMP:   53; 6HR MAX TEMP:   56; 6HR PCP:  0.01;

#LOWDEN 2SE     N/A         53  48  83  CALM    29.84R
#PLEASANT VIEW 1N/A         47  44  89  S7      29.87R
#PRESCOTT       N/A         52  48  86  CALM    29.85R
#SUDBURY        N/A         54  N/A N/A CALM    N/A
#WHITMAN COLLEGEN/A         55  46  72  S3      29.92R
#WAITSBURG 8N   N/A         49  42  77  S6      29.82R
#WALLA WALLA 5E N/A         53  48  83  CALM    N/A
#WALLA WALLA U  N/A         56  49  77  S1      29.86R
#WHITMAN MISSIONN/A         54  48  80  CALM    29.88R
$$

WAZ030-211310-
BLUE MOUNTAINS...WASHINGTON

CITY            SKY/WX      TMP DP  RH  WIND    PRES   REMARKS
$$

ORZ009-041-WAZ024-211310-
COLUMBIA RIVER GORGE

CITY            SKY/WX      TMP DP  RH  WIND    PRES   REMARKS
HOOD RIVER AP   CLOUDY      48  48  100 CALM    29.91R
THE DALLES AP   CLEAR       48  46  93  E8      29.90R
6HR MIN TEMP:   46; 6HR MAX TEMP:   52;

#ARLINGTON AIRPON/A         49  45  86  SW5     29.99S
#ARLINGTON HS   N/A         49  46  89  CALM    29.82R
#CELILO DOT     N/A         51  47  86  S3      N/A
#LYLE           N/A         52  50  93  N1      29.91R
#MARYHILL 2W    N/A         49  49  100 W3      N/A
#MOSIER 1S      N/A         50  49  96  CALM    N/A
#MURDOCK        N/A         53  51  93  CALM    29.92R
#RUFUS DOT      N/A         N/A N/A N/A N3      N/A

$$

ORZ510-211310-
NORTH CENTRAL OREGON

CITY            SKY/WX      TMP DP  RH  WIND    PRES   REMARKS
#CHENOWITH 1W   N/A         48  47  96  NW10    N/A
#COW CYN RST AREN/A         42  39  89  S7      N/A
#DUFUR 9E       N/A         46  40  79  S13     29.92R WCI 40
#GRASS VALLEY   N/A         41  41  100 SE3     N/A
#GRASS VALLEY 1SN/A         42  40  93  S6      29.94R
#KENT DOT       N/A         40  34  79  S8      N/A
#MAUPIN SCHOOL  N/A         48  43  83  SW1     28.80R
#MORO SCHOOL    N/A         42  41  96  CALM    29.92R
#SHANIKO 5WSW   N/A         40  35  82  SE12    N/A    WCI 33
#SHANIKO 4NW    N/A         40  38  92  S6      29.91R
#TYGH VALLEY 2NEN/A         47  41  79  CALM    29.90R
#WAPANITIA AIRPON/A         48  41  77  W7      29.91R
#WASCO DOT      N/A         45  42  89  CALM    N/A
#WASCO 5NE      N/A         42  39  89  CALM    29.89R
$$

ORZ511-211310-
CENTRAL OREGON

CITY            SKY/WX      TMP DP  RH  WIND    PRES   REMARKS
BEND AIRPORT    CLEAR       41  36  82  SW12    29.96R WCI 34
MADRAS AIRPORT  CLEAR       43  39  86  S10     29.95R
PRINEVILLE AP   CLEAR       36  36  100 CALM    29.97R
REDMOND AIRPORT CLEAR       34  32  92  S6      29.95R
6HR MIN TEMP:   32; 6HR MAX TEMP:   44;

#BEND 6E        N/A         43  33  67  CALM    29.90S
#BEND 1SW       N/A         38  36  92  S1      N/A
#BEND-KIM LN    N/A         42  37  82  SW5     29.91S
#CROOKED RVR RANN/A         40  37  89  W20G38  29.92R WCI 30
#CULVER         N/A         45  38  76  CALM    29.90R
#LAKE BILLY CHINN/A         49  24  37  S6      30.00R
#POWELL BUTTE 3EN/A         45  37  73  SW12    N/A    WCI 39
#POWELL BUTTE   N/A         44  36  73  SW7     29.59R
#PRINEVILLE 3N  N/A         34  33  96  CALM    29.91R
#WARM SPRINGS   N/A         43  40  89  SW1     29.91R


ORZ509-211310-
EAST SLOPES OF OREGON CASCADES

CITY            SKY/WX      TMP DP  RH  WIND    PRES   REMARKS
#BLUE BOX PASS  N/A         41  -8  12  CALM    N/A
#CAMP SHERMAN   N/A         39  35  85  CALM    29.93R
#LA PINE DOT    N/A         35  35  100 E2      N/A
#LA PINE 4NW    N/A         34  31  89  CALM    30.01R
#LAVA BUTTE DOT N/A         36  35  96  CALM    N/A
#SISTERS AIRPOR N/A         38  37  96  CALM    29.91S
#SISTERS ODOT   N/A         37  N/A N/A CALM    N/A
#SISTERS 3N     N/A         38  32  79  CALM    29.98R
#SUNRIVER       N/A         36  35  96  SW2     29.85R
#SUNRIVER AP    N/A         35  34  96  SW2     29.92R
#SUTTLE LK DOT  N/A         36  36  100 W31G43  N/A    WCI 23
#TUMALO 3W      N/A         41  35  79  S5      29.80R
#WANOGA BUTTE D N/A         33  33  100 W14     N/A    WCI 23

$$

ORZ044-211310-
LOWER COLUMBIA BASIN...OREGON

CITY            SKY/WX      TMP DP  RH  WIND    PRES   REMARKS
HERMISTON       MOCLDY      49  45  86  CALM    29.88R
6HR MIN TEMP:   47; 6HR MAX TEMP:   54;

#BOARDMAN SCHOOLN/A         58  53  83  CALM    29.89R
#BOARDMAN 3W    N/A         48  46  93  W6      29.59S
#BOARDMAN 8SW   N/A         47  44  89  W6      29.88R
#ECHO 8SW       N/A         52  44  74  W7      29.85R
#IONE SCHOOL    N/A         51  40  66  SW3     29.88F
#IRRIGON 4NW    N/A         50  49  96  S6      N/A
#UMATILLA SCHOOLN/A         48  48  100 CALM    29.93R
#UMATILLA       N/A         51  46  83  CALM    29.86R
$$

ORZ507-211310-
NORTHERN FOOTHILLS OF THE BLUES

CITY            SKY/WX      TMP DP  RH  WIND    PRES   REMARKS
PENDLETON AIRPT MOCLDY      49  44  83  S3      29.88S
6HR MIN TEMP:   47; 6HR MAX TEMP:   51; 6HR PCP:  0.01;

#ADAMS 3WNW     N/A         46  44  93  CALM    29.87S
#ATHENA         N/A         50  44  80  CALM    29.89R
#CAYUSE         N/A         50  46  86  E2      29.87R
#HELIX SCHOOL   N/A         46  44  93  CALM    29.87R
#HELIX 3N       N/A         46  43  89  N3      29.86R
#HOLDMAN 5SE    N/A         48  45  89  S1      29.89S
#HOLDMAN 6E     N/A         45  43  93  NW1     29.68R
#M-F FERNDALE   N/A         53  46  77  CALM    29.88R
#M-F GROVE ELEM N/A         55  44  66  CALM    29.87R
#M-FREEWATER 5SEN/A         53  45  74  SE1     29.89R
#PENDLETON DNTN N/A         48  45  89  CALM    28.70R
#PDT AQUATIC CTRN/A         49  43  80  CALM    29.88S
#PDT SUNRIDGE   N/A         47  44  89  CALM    29.90R
#PENDLETON 7NW  N/A         46  41  83  CALM    27.35R
#PILOT ROCK     N/A         49  40  71  CALM    29.91R
#TUTUILLA       N/A         49  45  86  S3      29.89S
#UMAPINE 2E     N/A         55  48  77  S1      29.85R
#WESTON SCHOOL  N/A         51  42  71  W1      29.85R

$$

ORZ508-211310-
SOUTHERN FOOTHILLS OF THE BLUES

CITY            SKY/WX      TMP DP  RH  WIND    PRES   REMARKS
LEXINGTON       PTCLDY      50  43  77  S7      29.92R
#AJAX           N/A         48  37  65  S8      29.85R
#CONDON SCHOOL  N/A         42  40  93  CALM    29.89R
#CONDON 5W      N/A         42  41  96  S6      29.88R
#FOSSIL SCHOOL  N/A         43  40  89  E1      29.91R
#HEPPNER EOC    N/A         51  42  71  SW7     29.84R
#HEPPNER 4NE    N/A         46  41  83  SW3     29.87S
#LEXINGTON 2SE  N/A         49  42  77  SE2     29.85S
#MIKKALO        N/A         47  41  79  SE5     29.89R
#OLEX 4N        N/A         45  41  86  S5      29.89R
#RUGGS 5NE      N/A         46  42  86  SW7     30.04S
#RUGGS 2SW      N/A         47  40  76  W6      29.89R

$$

ORZ502-503-211310-
BLUE MOUNTAINS

CITY            SKY/WX      TMP DP  RH  WIND    PRES   REMARKS
MEACHAM         CLOUDY      42  41  96  CALM    29.91R
#BATTLE MTN DOT N/A         40  41  100 SE3     N/A
#HEPPNER 15SE   N/A         40  38  92  NW1     29.81R
#LADD CYN SMT   N/A         47  35  63  W3      N/A
#LADD CREEK ODOTN/A         46  41  83  CALM    N/A
#N POWDER DOT   N/A         45  40  82  N3      N/A
#PIKES PEAK     N/A         46  41  83  SW14    27.99S WCI 40
#TROY SCHOOL    N/A         51  41  68  CALM    29.70R
#UKIAH          N/A         40  39  96  CALM    29.94R
#WESTON 4E      N/A         45  42  89  S3      29.79R
$$

ORZ505-211310-
JOHN DAY BASIN

CITY            SKY/WX      TMP DP  RH  WIND    PRES   REMARKS
JOHN DAY        MOCLDY      44  43  96  CALM    29.94R
#JOHN DAY KJDY  N/A         46  41  83  CALM    30.04R
#DAYVILLE SCHOOLN/A         48  46  93  CALM    29.91R
#MT. VERNON 5SE N/A         43  41  93  CALM    29.89R
#WINLOCK        N/A         43  42  96  CALM    30.02R
$$

ORZ506-211310-
OCHOCO AND JOHN DAY HIGHLANDS

CITY            SKY/WX      TMP DP  RH  WIND    PRES   REMARKS
#BUCK CREEK DOT N/A         41  41  100 CALM    N/A
#HORSE RIDGE DO N/A         33  30  89  CALM    N/A
#KEYES SMT DOT  N/A         35  35  100 CALM    N/A
#PAULINA SCHOOL N/A         34  32  92  CALM    29.96R
#PINE MTN OBS   N/A         33  31  92  S7      N/A
#PRAIRIE CITY   N/A         37  37  100 CALM    30.05R
#SENECA         N/A         39  N/A N/A W2      N/A
#SENECA 9NW     N/A         39  38  96  CALM    29.87R
$$

ORZ049-211310-
GRANDE RONDE VALLEY

CITY            SKY/WX      TMP DP  RH  WIND    PRES   REMARKS
LA GRANDE       CLOUDY      50  34  54  W5      29.90R
#COVE           N/A         47  41  79  CALM    29.83R
#COVE SCHOOL    N/A         47  40  76  CALM    29.88S
#COVE 6NW       N/A         46  40  79  CALM    29.91R
#ELGIN 3N       N/A         47  39  74  CALM    29.63R
#ELGIN 1E       N/A         48  40  74  CALM    N/A
#IMBLER SCHOOL  N/A         63  35  35  SW3     29.84S
#ISLAND CITY 4N N/A         52  51  96  CALM    29.90R
#LADD CYN DOT   N/A         48  40  74  CALM    N/A
#UNION 1S       N/A         47  41  79  CALM    29.74R
$$

ORZ050-211310-
WALLOWA COUNTY

CITY            SKY/WX      TMP DP  RH  WIND    PRES   REMARKS
JOSEPH AIRPORT  PTCLDY      41  39  93  S3      29.91R
#ENTERPRISE HS  N/A         44  42  93  CALM    29.92R
#IMNAHA 10S     N/A         43  41  93  SW1     29.90R
#JOSEPH 3N      N/A         41  35  79  CALM    29.93R
#JOSEPH 3W      N/A         39  39  100 CALM    29.77R
#LOSTINE        N/A         43  40  89  CALM    29.65R
#MT HOWARD 8000 N/A         29  27  92  N3      29.89R
#PROMISE 1S     N/A         45  38  76  CALM    29.88S
#SHEEP RDG 7000 N/A         31  30  96  CALM    29.72R
#WALLOWA SCHOOL N/A         45  40  82  CALM    30.79R



$$



USA.gov is the U.S. government's official web portal to all federal, state and local government web resources and services.